Location: Darlington Observatory
(36.4817°N, 105.8156°W)
Time: 03:28:07
(UTC-07:00)

NOSS 3-3 (A) - Visible Passes

Search period start: 07 December 2016 00:00
Search period end: 17 December 2016 00:00
Orbit: 922 x 1291 km, 63.4° (Epoch: 05 December)

Date Brightness Start Highest point End Pass type
(mag) Time Alt. Az. Time Alt. Az. Time Alt. Az.
07 Dec 4.4 17:39:18 10° SW 17:45:23 64° NW 17:51:57 10° NNE visible
07 Dec 6.3 19:34:29 10° WNW 19:37:46 14° NNW 19:40:30 11° N visible
08 Dec 6.0 18:47:49 10° W 18:52:25 21° NW 18:57:17 10° N visible
09 Dec 5.5 18:01:49 10° WSW 18:07:14 31° NW 18:13:04 10° NNE visible
10 Dec 4.9 17:16:20 10° SW 17:22:16 48° NW 17:28:39 10° NNE visible
10 Dec 6.4 19:13:05 10° NW 19:15:05 11° NNW 19:17:06 10° N visible
11 Dec 6.2 18:25:43 10° WNW 18:29:35 16° NW 18:33:39 10° N visible
12 Dec 5.8 17:39:20 10° W 17:44:18 24° NW 17:49:35 10° N visible
14 Dec 6.3 18:03:57 10° WNW 18:06:50 13° NNW 18:09:50 10° N visible
15 Dec 6.0 17:17:04 10° W 17:21:26 19° NW 17:26:02 10° N visible
